www.pogodaiklimat.ru

АРХИВ ПОГОДЫ в Краснодаре

Время (UTC), дата Ветер
(напр.,м/с)
 
Видим.   Явления Облачность Т
(С)
Тd
(С)
f
(%)
Тe
(С)
Тes
(С)
Комфортность P
(гПа)
Po
(гПа)
Тmin
(С)
Tmax
(С)
R
(мм)
S
(см)
21 23.10 СВ 3 н/о дымка 10/10
[Sc]
+8.9 +7.3 90 +6 +6 по сезону 1016.2 1012.5
00 24.10 СВ 2 1000 м дымка 10/10 300 м
[Cb cap]
+7.3 +5.7 90 +5 +5 по сезону 1017.1 1013.4
03 24.10 СВ 2 1000 м дымка 10/10 600 м
[St]
+5.8 +4.0 88 +3 +3 прохладно 1018.5 1014.7 +5.8
06 24.10 СВ 3 10 км дымка 10/10 600 м
[Cb cap]
+4.3 +2.2 86 +1 +1 холодно 1020.4 1016.7 +4.3
09 24.10 СВ 2
{10}
10 км 10/10 300 м
[St]
+3.6 +1.3 85 +1 +1 очень
холодно
1021.3 1017.5
12 24.10 СВ 3
{10}
10 км 10/10 600 м
[St]
+4.6 +0.9 77 +1 +1 очень
холодно
1021.0 1017.2
15 24.10 СВ 3
{11}
10 км 10/10 600 м
[St]
+4.1 +0.1 75 +1 +1 очень
холодно
1021.5 1017.7 +5.8
18 24.10 СВ 3-11
{11}
10 км 10/10 1000 м
[Sc]
+2.9 -0.8 77 -1 -1 очень
холодно
1022.0 1018.2
21 24.10 СВ 3
{12}
10 км 9/9 1000 м
[Sc]
+1.4 -2.9 73 -3 -3 очень
холодно
1023.4 1019.5
00 25.10 СВ 3
{12}
н/о н/о 0.0 -1.9 87 -5 -5 очень
холодно
1024.1 1020.3
03 25.10 СВ 1 10 км слабый ливневой дождь 10/10 1000 м
[Sc]
0.0 -1.5 90 -2 -2 очень
холодно
1024.8 1021.0 -0.0 3
06 25.10 СВ 1 4000 м слабый переохл. дождь (гололёд) [диам. гололёда 3 мм] 10/10 300 м
[Frnb Ns]
-0.0 -2.1 86 -2 -2 очень
холодно
1027.0 1023.2 -0.2
09 25.10 СВ 2 10 км {дождь} 10/10 300 м
[St]
+1.2 -1.6 82 -2 -2 очень
холодно
1027.9 1024.0
12 25.10 СВ 4-11
{13}
10 км {дождь} 8/8 600 м
[Sc]
+3.2 -1.9 69 -1 -1 очень
холодно
1028.1 1024.3
15 25.10 СВ 3
{11}
10 км ясно +0.5 -3.8 73 -4 -4 очень
холодно
1029.1 1025.3 +3.2 5
18 25.10 СВ 2
{10}
10 км ясно -1.2 -4.9 76 -5 -5 очень
холодно
1030.1 1026.2
21 25.10 СВ 3
{10}
10 км ясно -1.7 -6.7 69 -6 -6 очень
холодно
1030.4 1026.5
00 26.10 СВ 3 10 км ясно -2.3 -7.2 69 -7 -7 очень
холодно
1030.5 1026.6
03 26.10 СВ 2 н/о н/о -3.6 -7.4 75 -8 -8 очень
холодно
1030.9 1027.0 5
06 26.10 СВ 4-10
{12}
10 км 3/3 600 м
[St]
-1.9 -6.8 69 -7 -7 очень
холодно
1031.7 1027.8 -3.6
09 26.10 СВ 4-10
{13}
10 км 3/3 300 м
[St]
+2.2 -5.1 58 -2 +1 очень
холодно
1031.3 1027.5
12 26.10 В 4-10
{15}
10 км 6/6 300 м
[St]
+2.1 -4.3 63 -2 -2 очень
холодно
1031.4 1027.5
15 26.10 В 4
{14}
10 км 4/4 300 м
[St]
-0.6 -5.2 71 -6 -6 очень
холодно
1032.3 1028.4 +3.0
18 26.10 СВ 4-10
{12}
10 км 9/9 300 м
[St]
-2.3 -6.6 72 -8 -8 очень
холодно
1032.5 1028.6
21 26.10 СВ 3
{11}
10 км 10/10 300 м
[St]
-3.2 -6.8 76 -8 -8 очень
холодно
1031.8 1027.9
00 27.10 СВ 2 10 км 10/10 300 м
[St]
-3.7 -7.1 77 -8 -8 очень
холодно
1031.1 1027.2
03 27.10 СВ 1 10 км 6/6 1000 м
[Sc]
-4.8 -7.5 81 -7 -7 очень
холодно
1030.9 1027.0 -5.0
06 27.10 СВ 3 10 км ясно +0.5 -4.3 70 -4 -3 очень
холодно
1030.5 1026.6
09 27.10 В 5-10
{11}
10 км 1/1 1000 м
[Sc]
+6.3 -2.2 54 +3 +5 холодно 1029.7 1026.0
12 27.10 В 5-11
{15}
10 км 1/0
[Ac lent]
+7.7 -0.6 56 +4 +6 очень
холодно
1028.8 1025.1
15 27.10 В 4-11
{13}
10 км 8/8 1000 м
[Sc]
+4.4 -0.9 68 0 0 очень
холодно
1029.3 1025.5 +8.1
18 27.10 СВ 4
{11}
10 км ясно +3.4 -0.5 76 -1 -1 очень
холодно
1029.0 1025.2
21 27.10 СВ 2
{11}
10 км ясно +2.4 -0.4 82 -1 -1 очень
холодно
1028.0 1024.2
00 28.10 СВ 2 10 км ясно +2.3 -0.2 84 -1 -1 холодно 1027.4 1023.6
03 28.10 СВ 2 10 км ясно +1.3 -0.6 87 -2 -2 очень
холодно
1027.6 1023.8 +1.3
06 28.10 СВ 3 10 км ясно +5.0 +0.7 74 +2 +3 прохладно 1027.9 1024.1 +1.1
09 28.10 В 3 10 км 3/3 600 м
[Sc]
+10.0 +1.5 55 +8 +11 по сезону 1027.9 1024.2
12 28.10 В 4 10 км ясно +11.7 +1.8 51 +10 +12 прохладно 1027.2 1023.5
15 28.10 В 3 10 км 3/3 1000 м
[Sc]
+8.5 +2.1 64 +6 +6 прохладно 1027.5 1023.7 +12.0
18 28.10 СВ 1 10 км ясно +5.3 +1.6 77 +4 +4 прохладно 1027.2 1023.4
21 28.10 СВ 1 10 км ясно +4.6 +1.6 81 +3 +3 прохладно 1026.5 1022.7
00 29.10 СВ 2 10 км ясно +3.8 +1.3 84 +1 +1 прохладно 1025.9 1022.1
03 29.10 В 1 10 км ясно +3.1 +1.1 87 +2 +2 прохладно 1025.5 1021.8 +3.1
06 29.10 СВ 2 10 км ясно +6.2 +2.2 76 +4 +5 по сезону 1025.9 1022.1 +2.9
09 29.10 СВ 2 10 км ясно +11.0 +3.0 58 +10 +15 по сезону 1025.1 1021.4
12 29.10 В 2 10 км ясно +14.3 +3.8 49 +14 +17 по сезону 1024.0 1020.4
15 29.10 СВ 1 10 км ясно +11.2 +4.1 62 +11 +11 по сезону 1023.7 1020.0 +14.6
18 29.10 СВ 2 10 км ясно +7.3 +2.9 74 +5 +5 по сезону 1023.3 1019.6
21 29.10 СВ 2 10 км ясно +5.5 +2.4 80 +3 +3 прохладно 1022.7 1018.9
00 30.10 СВ 1 10 км ясно +4.4 +1.7 83 +3 +3 по сезону 1021.6 1017.8
03 30.10 В 1 10 км ясно +3.5 +1.5 87 +2 +2 прохладно 1021.0 1017.2 +3.5
06 30.10 В 2 10 км ясно +6.1 +2.3 77 +4 +5 по сезону 1020.4 1016.7 +3.2
09 30.10 СВ 2 10 км ясно +12.6 +4.0 56 +12 +17 тепло 1019.2 1015.6
12 30.10 СВ 2 10 км ясно +16.0 +3.6 44 +16 +19 тепло 1017.6 1014.0
15 30.10 СВ 1 10 км ясно +13.2 +4.4 55 +14 +14 тепло 1017.3 1013.7 +16.1
18 30.10 СВ 2 10 км ясно +9.9 +5.1 72 +9 +9 по сезону 1016.8 1013.1

 

Обсудить погоду в Краснодаре на МЕТЕОФОРУМЕ

 

Местоположение метеостанции Краснодар (Краснодарский край, Россия): широта 45.03 долгота 39.15 высота над уровнем моря 34 м.

В архиве по умолчанию представлена погода в Краснодаре за последнюю неделю. Архивные данные за месяц целиком и за предыдущие месяцы, начиная с января 2011 года, Вы можете получить, выбрав интересующий диапазон дат из раскрывающегося списка и нажав кнопку "Ввод!".

Внимание! Время в таблицах - всемирное. Для получения местного времени необходимо прибавить поправку, которая в Краснодаре равна 3 ч.

Ветер - указаны скорость ветра в м/с - средняя за 10 мин, порывы в срок и между сроками (в фигурных скобках) и направление, откуда дует ветер: С - северный, СВ - северо-восточный, В - восточный, ЮВ - юго-восточный, Ю - южный, ЮЗ - юго-западный, З - западный, СЗ - северо-западный.
Видимость - горизонтальная дальность видимости в метрах или километрах. При видимости от 1 до 10 км при отсутствии осадков обычно наблюдается дымка, при ухудшении видимости до 1 км и менее - туман. В сухую погоду видимость может ухудшаться дымом, пылью или мглою.
Явления - указаны атсосферные явления, наблюдавшиеся в срок или в последний час перед сроком; фигурными скобками обозначены явления, наблюдавшиеся между сроками (за 1-3 часа до срока); квадратными скобками обозначены град или гололедные отложения с указанием их диаметра в мм.
Облачность - указаны через наклонную черту общая и нижняя облачность в баллах и высота нижней границы облаков в метрах; квадратными скобками обозначены формы облаков: Ci - перистые, Cs - перисто-слоистые, Cc - перисто-кучевые, Ac - высококучевые, As - высокослоистые, Sc - слоисто-кучевые, Ns - слоисто-дождевые, Cu - кучевые, Cb - кучево-дождевые. Подробнее классификацию облаков см. в Атласе облаков (PDF).
T - Температура воздуха - температура, измеренная на высоте 2 м над землей.
Td - Температура точки росы - температура, при понижении до которой содержащийся в воздухе водяной пар достигнет насыщения.
f - Относительная влажность воздуха - влажноcть воздуха, измеренная на высоте 2 м над землей.
Te - Эффективная температура - температура, которую ощущает одетый по сезону человек в тени. Характеристика душности погоды. При расчете учитывается влияние влажности воздуха и скорости ветра на теплоощущения человека.
Tes - Эффективная температура на солнце - температура, которую ощущает человек, с поправкой на солнечный нагрев. Характеристика знойности погоды. Зависит от высоты солнца над горизонтом, облачности и скорости ветра. Ночью, в пасмурную погоду, а также при ветре 12 м/с и более поправка равна нулю.
P - Атмосферное давление - приведенное к уровню моря атмосферное давление.
Po - Атмосферное давление - измеренное на уровне метеостанции атмосферное давление.
Tmin - Минимальная температура - минимум температуры воздуха на высоте 2 м над землей.
Tmax - Максимальная температура - максимум температуры воздуха на высоте 2 м над землей.
R - Количество осадков - Количество выпавших осадков, мм.
S - Снежный покров - Высота снежного покрова, см.